Theta_e
350 351 355 356 355 354 354 354 354 352 351 350 350 351 350 350 349 350 350 351 351 351 351 352 352 352 353 353 353 353 353 353 354 354 353 353 353 352 352 352 352 352 351 352 351 351 351 352 352 352 352 351 351 350 349 349 348 349 348 348 348 348 347 347 347 348 348 347 347 348 348 349 350 350 350 350 349 348 348 348 347 344 344 346 348
349 353 355 354 355 354 354 353 353 353 351 350 350 351 350 349 348 349 350 350 351 351 351 352 352 353 353 353 353 354 353 353 354 353 353 353 353 353 353 352 352 352 352 352 351 351 351 351 351 350 350 351 351 351 349 348 348 348 348 347 347 347 347 346 346 346 347 347 346 346 348 349 350 350 349 349 348 347 346 347 346 343 344 346 347
352 353 354 354 355 354 354 353 352 352 351 349 350 351 350 349 348 349 350 350 351 351 352 352 352 352 352 353 354 354 354 353 354 353 353 353 353 353 353 352 352 352 352 352 351 351 351 351 350 350 350 351 351 350 350 349 348 347 347 347 346 346 347 347 347 347 347 346 346 348 347 348 349 349 349 349 349 348 346 346 346 345 345 347 346
350 353 353 353 354 353 353 353 352 352 350 349 350 350 349 348 348 349 350 350 350 351 352 352 353 353 353 353 353 354 354 353 353 353 353 353 353 353 352 352 351 350 350 350 349 349 349 350 349 349 349 350 350 349 349 348 348 347 347 346 345 345 346 345 347 347 347 347 347 345 345 344 345 348 348 348 348 348 347 347 347 346 346 346 347
351 352 353 351 351 352 353 353 352 352 351 350 348 348 348 348 348 348 349 350 351 352 352 352 353 353 353 353 353 354 353 353 353 353 353 352 352 352 351 350 348 348 348 348 349 350 349 348 348 348 348 349 349 348 347 349 347 345 344 343 345 345 346 346 347 347 347 347 346 344 342 342 344 345 347 347 347 345 345 345 346 346 346 346 346
351 352 352 350 350 349 353 352 351 351 351 349 349 348 348 348 348 348 349 350 351 352 352 352 353 353 353 354 354 354 353 353 353 352 352 351 349 349 348 347 346 345 345 345 345 346 347 348 348 348 347 348 349 349 348 346 344 343 343 343 345 346 346 346 346 347 347 346 345 342 342 343 344 343 346 347 346 344 344 344 344 345 345 345 345
351 352 351 350 349 351 352 351 352 351 349 349 348 348 348 348 348 349 350 350 352 352 352 353 353 353 353 354 354 354 353 353 353 351 350 348 348 347 346 346 346 345 344 343 343 342 344 345 346 346 347 347 348 348 346 344 343 343 344 346 345 346 347 345 346 346 345 341 339 341 342 343 343 343 346 346 346 345 343 343 343 343 343 344 344
352 351 351 350 349 351 352 352 351 350 351 350 349 348 348 348 348 348 349 351 352 352 353 353 353 353 353 353 353 353 354 353 353 351 350 350 349 349 349 349 349 346 346 346 344 341 341 344 345 346 345 346 347 346 344 343 343 344 345 346 347 348 347 346 346 346 344 339 339 340 341 342 343 343 346 346 344 343 344 343 342 341 342 343 342
350 350 351 350 349 352 352 352 352 351 350 350 349 348 348 348 348 348 349 351 352 352 352 353 353 353 353 353 353 354 353 353 353 352 351 351 350 349 349 348 348 347 347 346 344 343 343 343 345 345 345 345 346 344 343 343 343 344 345 347 349 348 346 346 346 344 341 339 338 339 340 341 342 342 344 344 343 344 345 343 343 343 341 341 340
350 351 350 350 349 352 352 352 352 351 350 350 348 348 347 348 348 348 349 349 351 352 352 352 353 353 353 353 353 353 353 353 353 352 351 349 348 347 346 346 346 346 347 347 345 342 342 344 344 345 346 345 343 342 343 343 343 344 345 346 347 347 346 345 344 343 339 340 340 342 345 344 341 342 344 345 345 344 343 343 342 343 343 343 341
350 350 350 351 350 351 352 352 352 351 350 350 349 349 348 348 348 349 349 350 351 351 352 352 352 353 353 353 353 353 353 353 352 352 351 350 349 348 348 347 347 347 348 347 346 345 344 343 344 344 344 343 342 342 343 343 343 345 345 345 345 345 345 344 342 338 338 339 340 342 344 345 342 342 344 343 342 341 341 341 341 342 342 343 343
349 350 351 350 352 352 352 351 351 351 349 350 348 348 348 348 348 348 349 349 350 351 351 352 353 352 353 353 353 353 353 352 352 351 351 350 349 348 348 348 347 347 345 344 344 343 344 343 343 343 343 343 342 343 343 343 343 345 344 344 344 344 343 342 336 335 334 335 337 338 338 339 341 342 344 344 342 341 341 341 341 341 341 340 341
349 350 350 350 349 352 352 351 351 351 350 350 349 348 348 347 347 348 349 350 351 351 351 352 353 353 353 353 353 352 352 351 351 350 350 348 348 347 347 347 346 344 344 344 344 345 344 343 344 344 343 342 342 343 343 343 343 345 344 343 343 343 342 339 333 333 333 335 337 337 336 338 341 343 343 344 343 342 342 341 341 340 341 340 340
348 349 350 348 349 352 351 351 351 351 350 349 348 348 348 348 347 348 350 351 351 351 352 352 353 353 352 352 352 352 351 351 350 350 349 348 347 347 347 347 347 346 345 345 345 344 343 343 344 344 342 342 343 343 343 342 343 344 343 342 342 342 341 339 337 335 336 336 338 336 337 341 342 342 341 341 341 342 341 340 338 337 337 338 337
348 349 348 349 349 348 351 350 350 350 349 348 347 347 347 348 348 349 350 350 351 352 351 352 352 352 352 352 352 351 351 350 350 350 349 348 347 346 346 346 347 347 346 346 345 344 343 343 343 342 343 343 343 344 342 341 343 345 344 341 341 341 339 334 335 334 335 336 336 335 336 340 343 342 340 342 342 341 340 340 338 337 337 337 336
349 348 349 349 349 349 349 350 350 349 348 348 347 347 347 348 349 349 349 350 351 351 351 352 352 352 351 351 351 351 350 350 350 348 348 348 348 347 347 345 345 346 346 345 344 343 343 343 343 343 343 343 343 343 342 342 343 345 345 342 340 340 339 336 333 332 332 333 336 337 336 339 340 342 338 338 339 339 339 339 338 338 339 338 338
349 349 348 348 348 348 348 348 348 349 348 348 347 347 348 349 349 349 349 350 351 351 352 351 351 351 351 351 351 350 350 350 349 349 349 349 348 347 346 346 346 346 345 345 344 344 343 344 344 342 343 343 343 343 342 343 344 344 345 342 340 340 339 336 332 331 333 336 335 333 335 337 338 339 338 339 338 339 339 339 338 338 340 340 340
348 348 347 347 347 347 347 347 346 344 343 347 347 347 348 349 349 349 349 350 351 351 351 351 351 351 351 351 351 350 350 349 349 348 349 348 347 347 346 345 346 346 346 345 344 344 344 344 343 343 343 344 343 343 343 343 344 344 344 342 341 340 340 336 332 333 335 338 333 337 336 340 338 338 338 339 340 340 338 337 337 336 337 338 339
347 347 347 347 346 346 346 345 344 341 341 340 342 345 348 347 348 349 349 349 349 350 350 350 351 351 350 350 350 350 349 349 349 349 348 347 348 347 346 345 344 344 345 346 346 345 344 344 344 343 344 344 344 344 344 343 344 344 344 342 341 340 340 336 334 334 336 335 334 333 333 339 341 341 341 341 341 339 337 337 338 338 338 338 338
345 345 345 345 345 344 343 342 341 340 339 338 339 341 346 347 347 348 348 349 349 349 349 350 350 350 350 349 349 349 348 348 349 348 348 347 347 346 346 346 344 344 345 344 345 345 346 345 345 344 344 344 344 342 342 343 344 343 343 342 341 341 335 333 334 333 333 335 337 334 340 337 340 341 341 340 340 338 338 336 336 337 337 337 337
343 344 344 344 344 343 342 341 340 339 339 338 338 339 344 346 346 346 348 348 349 349 349 348 348 348 349 348 345 342 340 340 341 341 347 345 346 346 347 346 345 345 343 344 345 345 346 346 345 344 344 344 342 339 339 341 343 343 342 341 341 333 332 334 334 336 335 339 340 336 340 340 342 340 340 339 338 337 336 335 335 334 335 335 337
340 340 343 344 343 343 342 341 340 338 338 339 339 341 343 343 338 341 342 345 347 347 346 343 349 340 348 342 340 345 337 336 338 347 344 345 344 346 346 346 346 344 344 344 344 344 345 346 345 344 344 342 339 331 329 337 343 343 342 341 333 331 333 334 334 336 337 338 339 340 341 341 341 339 339 337 335 336 335 334 334 333 334 334 336
337 339 340 342 342 342 343 342 341 340 340 341 341 340 339 338 337 338 341 346 346 346 342 342 337 337 337 338 340 337 336 340 340 342 344 346 344 346 346 346 346 345 344 343 345 344 345 345 345 344 341 339 335 331 328 326 330 340 342 336 331 333 334 334 335 336 336 338 337 341 341 341 339 337 336 335 334 336 335 333 333 332 332 332 333
337 339 339 341 342 341 341 342 342 342 342 342 343 343 342 342 342 340 338 338 339 340 338 337 336 335 335 335 334 339 337 334 344 347 347 339 336 340 346 346 346 346 345 340 341 343 344 342 342 342 338 337 335 332 329 327 328 327 329 331 332 332 334 335 336 336 336 338 336 341 341 339 338 336 336 334 333 332 332 333 332 332 331 333 332
338 339 339 338 340 340 340 339 341 342 341 342 343 342 343 343 342 342 341 337 337 336 336 334 334 334 334 335 332 340 335 333 334 335 336 336 334 334 336 335 335 334 342 337 332 333 336 334 335 337 336 335 335 333 331 330 331 331 331 331 332 333 334 335 335 335 336 337 339 341 341 339 338 336 335 334 333 333 332 332 332 332 331 331 332
339 337 337 338 338 339 340 341 342 341 341 342 342 343 342 341 340 341 341 340 338 336 335 333 333 332 332 335 339 336 334 333 332 334 335 335 335 334 334 334 333 335 339 337 333 332 332 333 335 335 335 335 335 334 334 333 330 331 331 332 332 333 333 334 335 335 336 336 339 341 342 339 337 336 336 336 334 334 333 333 333 332 332 331 331
336 336 337 337 337 337 339 340 340 341 341 342 342 341 340 341 339 339 340 339 339 337 335 333 333 333 333 337 336 335 333 331 331 332 334 335 336 335 334 333 334 333 333 334 334 332 331 333 333 333 332 334 335 335 334 333 332 332 331 332 332 332 332 333 333 334 335 335 337 340 341 339 337 337 337 336 334 333 333 333 332 333 332 332 331
335 336 337 337 336 336 338 339 339 340 340 341 341 340 340 339 338 342 340 341 340 336 332 334 336 334 335 335 339 335 335 333 332 332 333 334 336 336 334 333 333 333 332 333 332 331 330 331 332 331 332 332 333 334 335 336 332 332 332 332 332 332 332 332 333 333 334 334 335 338 341 340 338 338 337 336 335 333 333 334 333 333 333 331 330
334 335 336 336 336 336 336 337 339 339 340 340 340 340 339 339 339 338 337 342 336 335 333 335 335 335 336 337 339 334 335 334 332 332 331 334 334 334 335 335 333 333 332 332 332 333 331 330 330 330 330 331 331 333 335 336 335 333 332 332 333 333 331 331 331 332 333 333 333 336 340 339 340 340 337 336 335 334 333 334 334 334 333 332 331
334 335 336 336 336 337 335 335 337 338 339 340 339 339 338 338 339 338 334 340 333 333 333 333 333 334 333 334 336 334 333 333 333 333 333 333 332 333 333 333 333 333 332 333 333 332 332 331 330 329 329 330 331 333 336 335 335 336 333 333 333 333 331 330 330 331 332 332 333 335 340 339 340 339 339 337 336 336 334 334 336 336 334 334 333
334 335 336 336 337 336 336 336 337 339 338 338 337 337 338 338 338 334 334 334 334 336 333 332 335 334 333 332 333 335 333 332 333 333 333 333 333 333 334 333 333 333 332 333 333 332 331 331 331 330 330 329 330 331 333 333 334 335 336 334 333 333 331 330 330 331 331 331 332 334 337 339 339 338 339 338 337 337 336 334 336 336 334 332 331
334 335 336 337 337 336 336 336 336 337 338 336 337 336 337 337 335 335 335 333 335 332 331 332 336 334 335 332 331 331 335 332 331 332 334 334 334 334 334 333 334 334 334 333 333 333 332 332 331 330 330 330 329 330 332 332 332 333 334 334 333 332 331 330 329 330 330 331 331 333 335 337 339 338 338 339 338 339 336 337 336 335 334 332 331
336 337 338 337 336 335 335 335 336 336 334 334 335 334 333 335 335 335 336 336 335 332 331 332 332 333 333 332 331 332 334 332 331 331 334 334 335 335 335 335 335 335 334 335 335 334 334 333 332 332 332 332 332 332 331 331 331 332 333 333 332 332 331 330 329 329 329 330 331 332 333 335 336 338 337 338 339 339 337 337 337 336 335 332 331
336 338 338 336 337 335 336 335 335 334 334 333 334 333 333 334 335 333 336 332 332 332 332 330 332 332 332 332 333 333 333 331 331 330 330 332 332 333 334 336 337 337 336 334 333 334 334 333 332 331 332 332 331 332 331 330 331 330 329 329 331 331 330 330 329 329 329 329 330 331 332 333 334 335 335 337 339 338 337 338 336 336 335 332 331
336 337 337 337 338 337 337 335 336 334 336 334 334 333 333 335 333 332 332 331 331 331 330 331 330 331 333 333 333 334 335 333 333 331 330 331 331 332 333 334 335 335 335 335 335 335 333 331 333 331 331 330 330 331 332 330 329 330 330 330 332 331 330 330 331 330 330 329 329 330 331 332 333 333 334 335 339 338 337 338 334 334 335 333 332
336 336 338 338 337 337 338 334 335 333 333 334 332 334 334 334 334 337 332 331 332 330 331 332 331 331 333 334 334 335 337 336 335 334 333 333 333 333 334 334 334 334 334 335 335 334 334 333 333 332 330 329 329 329 330 329 330 331 330 329 330 331 330 330 330 330 330 329 329 331 331 331 332 333 334 334 335 336 337 337 336 336 334 334 332
337 337 337 338 338 338 338 334 334 333 334 336 335 333 333 334 335 337 335 334 332 333 334 333 332 332 331 330 331 333 334 335 336 335 335 334 334 334 335 335 335 334 334 334 334 335 334 334 332 332 331 329 329 329 328 328 328 329 330 330 329 330 329 330 329 330 330 329 329 330 331 331 331 335 335 334 333 334 336 337 337 335 335 336 333
337 338 338 337 337 338 338 336 335 335 334 336 336 335 335 335 335 337 339 335 335 333 331 331 332 332 332 333 333 332 333 332 333 334 334 335 335 335 335 335 335 334 333 334 334 335 334 333 332 331 331 329 328 327 327 327 328 328 328 329 329 328 329 330 330 331 329 328 328 329 330 330 331 332 334 333 332 333 334 336 336 335 335 334 335
337 338 338 339 339 339 339 339 337 334 333 335 337 336 335 334 333 334 333 331 329 328 330 331 333 333 333 334 334 334 334 331 332 333 333 334 334 335 335 335 335 334 333 333 333 334 334 333 332 331 331 330 329 328 328 327 327 328 327 327 328 329 330 330 330 330 329 329 329 330 330 330 330 331 332 332 332 331 332 333 335 334 334 334 334
337 339 339 339 340 340 339 339 338 334 333 334 335 334 332 331 331 330 329 329 329 330 330 331 332 333 334 335 334 333 332 334 333 334 334 334 334 334 333 334 333 333 332 332 332 333 333 333 332 331 330 329 330 329 328 327 326 326 326 328 328 328 328 329 329 329 330 329 329 330 329 329 328 329 331 331 331 331 331 332 334 331 332 333 333
335 337 337 338 339 339 339 337 337 335 334 333 333 333 331 329 328 328 329 329 329 331 331 331 330 332 334 334 334 334 333 334 336 336 335 335 335 335 334 333 333 333 332 331 333 333 334 334 334 333 331 329 328 329 329 328 325 323 325 325 326 328 328 329 328 329 330 330 330 329 329 328 327 327 329 331 330 330 330 330 332 329 330 332 332
334 335 334 334 335 338 339 337 337 336 335 335 332 331 328 330 328 327 327 328 328 329 330 329 330 332 333 334 334 334 333 333 335 334 335 333 333 333 333 332 333 332 332 333 333 333 332 332 333 331 332 330 328 329 329 327 322 321 320 320 322 325 327 327 327 328 330 330 330 329 328 327 327 327 328 329 329 329 329 330 331 328 328 330 331
331 330 330 333 334 334 334 334 335 335 334 334 333 330 328 328 327 325 326 325 325 329 329 329 331 331 330 331 332 331 331 330 329 332 331 331 331 330 330 331 332 333 332 331 332 331 332 332 331 330 329 331 331 331 329 328 324 324 324 320 317 316 320 324 327 327 328 329 330 328 328 328 327 327 328 328 327 328 329 329 329 328 328 328 330
328 328 329 330 331 331 328 330 331 331 331 334 334 330 330 328 327 327 326 325 325 329 327 326 325 326 328 328 329 329 328 328 328 328 330 329 328 328 327 328 330 332 331 330 331 331 332 332 332 331 330 327 328 328 331 329 328 323 316 317 318 317 314 316 320 325 329 328 329 328 329 328 328 328 328 326 326 328 328 328 328 328 327 328 329
325 325 325 325 325 324 325 328 329 331 330 332 330 329 330 326 324 325 324 324 325 323 325 325 326 328 330 328 329 329 328 328 328 327 329 328 327 326 327 328 328 329 331 331 331 331 332 333 333 331 330 328 327 328 329 330 329 328 324 317 314 313 315 318 319 321 325 326 327 329 329 328 328 328 327 327 328 328 327 327 328 328 327 327 328
324 323 323 324 324 325 325 327 327 327 329 328 329 329 328 325 324 324 323 320 322 323 325 324 326 325 326 326 328 328 328 328 328 328 328 329 328 328 327 327 327 327 328 330 330 331 331 331 332 332 331 331 329 327 326 329 329 328 327 326 324 318 317 319 319 315 323 326 327 328 329 329 328 328 327 327 326 327 327 327 327 327 327 327 327
324 324 323 324 325 326 328 328 329 329 330 329 328 329 327 327 327 327 326 325 323 322 322 324 324 325 324 325 326 326 327 327 327 327 327 328 328 327 328 328 328 328 329 329 329 329 330 330 332 331 331 330 329 324 325 326 328 327 327 327 327 325 322 320 316 318 315 321 325 326 327 329 328 328 327 327 327 327 327 327 327 327 327 327 327
322 322 322 324 325 326 328 329 329 329 328 329 329 329 328 326 326 325 325 323 323 323 323 323 323 325 324 324 324 325 326 326 326 326 327 327 328 327 328 328 329 329 330 329 329 330 330 331 331 331 331 330 330 326 325 327 324 324 327 325 326 326 324 322 322 320 318 315 318 325 327 328 328 328 328 328 327 326 325 326 327 327 327 326 327
321 321 322 323 325 326 326 326 326 326 326 328 328 328 328 325 324 323 322 322 323 323 322 322 323 322 323 323 324 324 325 325 326 326 326 327 328 327 327 327 327 327 329 329 330 330 330 329 329 329 329 329 330 329 326 325 325 325 326 325 326 324 324 322 322 322 318 316 316 318 320 325 327 327 328 329 329 328 327 326 327 327 327 326 326
323 323 323 324 324 324 325 324 324 324 325 325 325 325 325 325 323 321 321 320 322 322 321 321 321 321 322 322 323 323 324 325 325 326 326 327 327 327 327 327 327 327 328 328 328 329 329 329 330 329 329 328 329 328 326 326 326 326 326 326 323 322 322 321 321 321 320 320 317 317 319 319 319 323 327 327 328 328 327 327 327 327 327 326 326
323 323 322 322 322 322 322 322 322 323 324 323 323 323 323 323 322 321 321 320 320 320 320 321 321 321 321 321 322 323 325 325 326 326 327 327 327 328 327 327 328 328 328 328 328 328 329 329 329 329 329 328 328 327 326 326 326 326 326 325 324 324 322 320 320 321 321 318 317 317 320 321 320 320 324 327 328 329 328 327 326 326 326 327 326
Wind_Speed
9 10 8 11 11 14 16 18 17 17 16 16 15 13 13 14 14 14 15 15 15 15 16 16 17 16 16 16 16 16 16 16 15 15 14 15 15 15 14 14 15 15 15 15 16 16 16 16 16 15 15 16 17 17 17 18 17 18 18 17 17 17 16 16 15 14 13 13 10 11 11 12 15 15 16 16 16 16 16 15 12 9 8 9 16
12 9 8 9 13 14 17 18 17 17 16 15 14 13 13 14 14 14 14 15 15 15 15 15 15 16 16 16 16 16 15 15 15 15 15 15 15 15 14 14 14 15 15 15 15 15 15 16 16 15 15 16 17 17 17 18 18 18 18 18 16 14 14 12 12 12 11 11 13 11 13 14 14 15 15 16 16 16 15 15 14 9 7 14 16
10 9 8 9 14 15 17 18 17 16 16 14 13 13 12 13 14 14 14 14 14 14 14 15 15 16 16 16 15 15 15 14 15 15 15 15 16 15 15 15 15 15 15 14 13 14 15 16 15 15 14 15 16 16 16 17 16 16 16 14 15 15 13 12 11 12 12 13 12 13 13 14 13 15 15 16 16 16 15 15 15 12 8 16 14
12 8 8 11 14 15 17 17 17 16 15 14 13 13 13 13 13 13 13 13 14 13 14 14 14 15 15 15 15 15 15 15 15 15 15 15 15 16 15 15 15 14 14 13 13 14 15 15 15 14 14 14 15 15 15 15 14 12 12 12 11 12 12 12 13 13 13 12 11 9 4 6 9 14 15 15 16 15 15 15 15 15 16 15 15
11 9 8 7 7 13 16 17 16 15 15 14 13 13 13 13 13 13 13 13 13 13 14 14 15 16 16 16 15 15 15 15 15 15 15 15 15 15 14 14 14 14 13 12 10 11 14 14 14 14 14 13 15 13 13 13 12 10 10 9 9 9 11 11 12 12 12 12 11 7 5 6 5 12 14 15 15 15 15 15 15 15 15 15 15
10 9 8 7 6 11 16 16 15 15 14 14 13 14 13 13 13 13 12 12 12 13 14 14 15 15 15 15 15 14 15 15 15 15 14 14 14 14 13 13 13 12 12 12 10 9 12 12 12 13 13 13 13 13 12 12 11 10 9 8 7 7 9 10 11 12 12 12 10 5 5 5 4 6 14 14 14 14 14 14 14 13 13 13 13
12 9 7 7 6 9 16 16 15 15 14 13 13 14 13 13 13 12 12 12 12 12 13 13 13 14 14 15 14 14 15 15 15 14 14 13 13 12 12 12 11 11 10 11 10 8 10 11 11 12 12 12 12 11 11 11 10 9 8 8 6 5 9 11 11 12 11 7 5 4 4 4 4 3 13 13 13 14 14 13 13 12 12 12 12
9 9 9 7 6 12 16 16 15 14 14 14 13 13 13 13 12 11 12 11 11 11 12 12 13 14 14 14 14 14 14 14 15 14 13 12 11 11 11 11 11 11 10 10 10 8 9 10 10 10 11 10 10 11 11 10 10 9 9 8 5 6 12 13 12 11 10 5 4 4 3 2 3 5 12 13 12 12 13 13 12 11 11 11 11
9 9 8 8 7 16 15 15 14 15 14 14 13 13 13 13 12 11 11 11 11 11 11 12 13 13 13 14 14 13 14 15 15 14 13 12 12 11 11 11 11 11 10 9 9 8 9 8 9 10 10 9 9 11 11 10 10 10 9 9 9 14 14 13 12 11 6 4 4 3 3 2 3 5 10 12 12 12 13 11 11 12 12 11 10
9 8 8 7 7 16 15 15 14 15 14 14 13 13 14 12 11 11 11 11 10 10 10 11 12 13 13 13 14 14 14 14 14 13 12 12 11 10 9 9 9 9 9 9 9 8 7 8 8 9 9 9 10 10 10 10 9 9 9 11 15 14 13 13 12 8 4 4 5 5 4 5 3 4 9 10 12 12 12 11 9 10 10 11 11
9 8 7 7 9 14 13 14 15 15 14 14 13 13 13 13 12 10 10 10 10 10 8 10 11 11 12 13 13 13 13 13 13 12 12 11 10 9 9 8 8 8 9 10 9 8 8 8 8 9 9 9 10 10 10 9 9 10 10 12 13 13 12 12 9 5 5 5 5 5 7 7 4 4 10 11 10 10 10 9 10 10 11 11 12
9 8 7 7 12 13 13 13 15 15 14 14 14 13 13 12 12 11 9 10 11 10 9 8 9 10 12 12 12 12 13 12 12 12 12 10 9 9 8 9 9 10 10 10 9 9 8 7 8 8 9 10 10 10 9 9 9 10 11 11 11 11 11 11 6 5 5 5 4 4 4 4 4 7 11 10 10 9 9 9 8 9 9 9 10
9 8 7 6 7 13 12 13 15 15 14 14 13 14 13 12 12 11 9 8 8 10 10 9 8 8 10 11 11 12 13 12 12 11 11 10 9 9 9 9 9 9 9 9 9 9 8 8 7 8 9 10 10 10 9 9 10 10 11 11 11 12 11 10 5 5 4 5 4 5 4 3 4 9 9 10 10 9 9 9 9 8 8 8 9
10 9 7 7 6 13 12 13 12 14 14 14 13 13 12 12 12 11 7 7 8 9 8 8 8 9 9 10 11 12 11 11 12 11 10 9 9 8 8 8 8 8 9 8 9 9 8 8 8 8 9 9 9 9 9 9 9 9 10 11 11 11 12 8 6 5 5 5 4 4 4 4 5 7 8 8 8 9 8 8 7 7 6 7 8
11 10 9 8 7 8 15 14 13 13 14 13 13 13 12 10 10 9 8 8 9 8 9 9 8 9 10 10 11 11 11 10 12 11 10 9 9 8 8 7 8 9 9 9 8 9 8 8 7 7 7 7 8 8 8 9 9 8 9 10 11 10 10 5 4 5 4 4 4 4 3 2 5 5 7 8 8 9 8 8 7 7 7 7 7
9 11 9 7 8 8 8 13 14 13 13 14 13 13 12 11 11 10 9 9 9 9 9 9 9 9 10 10 10 10 10 11 11 11 10 9 8 8 8 7 7 7 7 7 7 7 8 7 6 6 6 6 7 7 7 9 8 7 8 10 10 10 10 6 5 5 4 4 4 4 4 4 7 5 6 7 7 7 7 7 6 6 7 7 7
9 9 10 9 8 7 7 7 10 15 13 13 13 13 11 10 11 10 9 9 9 10 9 9 9 9 9 9 9 10 10 10 10 9 10 10 8 7 7 7 7 7 6 6 7 7 7 7 7 6 6 6 6 6 8 8 8 6 8 11 10 10 10 7 5 4 4 4 3 3 4 3 5 6 8 7 7 7 8 7 6 7 7 7 7
8 8 9 9 8 7 6 7 7 6 6 10 13 13 11 11 10 10 10 9 8 9 9 8 9 9 8 9 9 9 9 9 9 9 10 9 8 8 7 6 5 5 5 6 6 6 7 7 7 6 6 6 6 7 8 7 7 6 8 11 10 10 9 7 5 4 4 4 4 2 2 4 6 6 7 7 8 9 8 6 5 4 6 6 6
8 8 8 8 8 8 6 6 6 5 5 5 5 9 12 12 11 10 11 9 9 10 10 9 9 9 9 8 8 9 8 8 9 8 8 7 8 7 6 6 5 4 4 5 5 6 6 6 7 7 7 7 7 9 8 7 6 5 9 11 11 10 10 6 4 4 4 4 3 3 1 4 2 6 8 8 8 7 7 6 5 5 5 6 6
7 7 7 6 7 7 6 5 6 5 4 4 5 4 10 11 10 10 10 10 10 10 10 9 9 8 9 8 6 4 5 4 7 5 7 6 6 5 5 6 5 3 3 4 4 5 5 6 6 6 7 7 9 9 8 6 6 5 8 10 11 10 5 4 4 4 4 3 3 2 2 6 6 7 8 8 7 6 6 5 4 5 5 5 4
5 6 6 7 8 7 7 5 5 5 5 5 4 4 6 10 9 10 9 9 10 9 8 8 7 7 7 6 6 4 4 4 3 2 4 2 4 3 5 4 4 3 2 3 3 4 5 5 6 6 7 8 9 8 7 6 6 4 8 9 9 5 4 4 4 3 3 2 3 2 6 7 8 7 7 6 5 5 5 5 4 3 3 3 3
8 7 6 7 7 7 7 6 5 6 6 5 4 3 3 6 3 3 3 6 8 7 5 3 4 3 6 5 3 3 3 2 2 3 2 0 1 1 2 3 2 2 1 2 3 4 4 4 5 6 7 8 9 4 3 4 5 4 6 8 5 4 4 4 4 4 3 2 3 4 8 8 8 7 6 4 3 4 5 4 4 4 3 4 4
7 6 6 7 6 6 6 7 6 6 7 5 4 3 5 4 3 3 3 5 5 5 3 4 3 4 4 4 3 2 2 2 0 1 1 2 0 2 1 0 1 1 1 1 2 4 4 5 6 6 7 6 4 3 2 2 4 3 5 5 4 3 4 4 4 4 3 3 3 6 9 9 7 5 5 5 4 7 5 5 4 3 3 1 2
7 6 6 5 6 5 6 5 6 6 6 5 4 4 4 4 3 3 3 4 4 4 4 3 3 3 3 2 2 2 1 0 2 4 5 3 2 3 4 4 3 2 3 3 5 5 7 6 7 7 4 3 2 3 2 2 3 3 3 4 4 4 4 4 4 4 3 4 4 8 9 8 5 5 5 3 4 5 4 4 4 3 3 3 2
4 5 5 5 6 5 5 5 5 5 6 5 4 5 5 4 3 3 3 3 4 3 3 3 2 3 2 2 1 1 1 1 1 2 2 2 1 1 2 2 2 2 3 2 2 2 3 3 3 3 3 2 2 2 2 2 1 2 4 4 4 5 4 4 3 3 3 3 4 8 9 9 6 5 5 5 5 6 5 4 3 3 2 2 2
4 4 5 6 5 5 5 5 6 6 5 5 4 6 6 4 4 3 4 2 3 3 3 2 2 2 2 2 2 2 2 1 1 1 1 1 2 2 2 1 1 1 1 2 2 1 2 2 2 2 2 2 2 0 2 3 3 2 4 4 5 5 5 5 4 4 4 4 4 9 8 9 7 7 8 7 8 9 7 6 5 5 4 3 3
5 4 4 5 5 5 5 6 7 7 6 5 5 4 4 4 3 3 4 2 3 4 3 2 1 2 1 1 2 0 1 1 2 3 1 1 3 3 2 1 2 2 1 1 3 2 2 2 1 2 2 2 3 2 2 3 3 3 3 4 5 4 5 5 4 4 4 5 4 9 9 8 8 9 9 8 8 7 7 6 5 5 5 5 4
6 5 4 5 6 6 6 6 6 6 6 6 5 4 4 4 3 6 4 4 4 3 2 2 2 2 2 2 2 2 1 1 1 2 4 2 3 3 2 2 2 2 1 1 3 3 4 3 3 3 2 2 3 3 1 3 4 4 3 4 4 4 4 5 5 5 5 5 5 7 9 9 9 11 9 8 8 7 7 7 6 7 6 6 5
7 7 6 5 5 5 6 6 6 6 5 5 4 3 4 4 3 3 4 5 3 3 2 2 2 2 2 2 2 2 1 1 2 2 1 2 2 3 3 4 2 3 1 3 3 4 5 4 4 4 3 3 3 4 3 2 3 4 4 4 4 4 4 4 5 5 5 5 5 7 11 11 10 10 9 9 9 9 7 8 7 8 7 7 6
8 7 7 6 5 5 5 6 6 5 5 6 3 4 3 4 3 3 2 2 2 2 2 2 2 2 3 2 2 2 2 2 2 1 1 2 2 2 2 3 4 2 2 4 3 4 5 5 4 4 4 4 3 3 3 4 3 2 4 4 5 5 5 6 6 5 5 5 5 5 11 11 10 9 8 10 11 10 7 7 10 7 7 7 6
7 6 5 5 5 6 5 5 6 7 5 5 4 4 4 4 3 2 2 2 2 3 2 2 2 2 2 1 1 1 1 1 2 2 2 2 2 2 3 3 3 3 2 3 3 3 4 4 4 5 5 5 4 3 3 4 4 5 2 3 4 4 5 4 4 5 5 5 5 5 6 13 10 9 8 9 8 11 8 8 9 8 7 7 6
7 6 4 5 5 6 6 5 5 6 6 5 5 5 5 4 3 3 3 3 3 3 3 3 2 1 1 1 1 1 1 2 1 2 2 3 4 3 3 3 4 3 1 2 2 2 5 5 3 3 4 4 4 4 4 4 5 4 4 4 4 4 5 4 5 5 5 5 6 5 5 5 9 10 9 6 9 9 11 10 10 10 8 6 6
4 5 5 6 6 5 5 5 5 5 5 6 6 5 4 3 4 3 3 3 4 3 3 2 2 1 1 1 1 2 2 2 2 3 4 3 4 5 5 4 3 2 2 3 3 4 5 5 5 3 4 4 5 5 3 4 5 5 4 5 3 4 3 3 4 3 3 3 4 5 5 5 4 8 10 8 8 10 11 12 12 10 9 6 6
6 4 7 6 4 4 4 5 5 6 5 5 4 4 4 4 4 3 2 3 3 3 2 2 0 0 1 1 2 2 3 3 3 3 2 3 4 5 6 6 5 3 2 3 4 4 5 6 5 4 5 5 6 4 4 4 4 3 3 3 1 2 3 3 3 4 5 5 3 3 3 4 4 5 5 9 8 10 10 8 12 11 10 7 7
6 6 7 7 7 5 5 4 5 4 4 4 4 4 3 4 4 3 2 2 2 2 1 1 0 1 1 2 2 3 3 3 2 3 4 2 4 5 5 5 5 4 3 3 3 3 4 6 5 6 6 5 5 5 5 4 3 2 2 1 1 2 3 4 5 6 6 4 5 5 4 4 4 5 5 5 6 11 9 8 8 8 11 8 7
7 7 6 7 7 5 4 3 3 3 3 3 3 4 4 4 3 3 2 2 1 1 2 2 2 2 2 3 4 3 3 3 3 3 4 3 4 6 5 5 5 4 5 4 4 5 4 5 6 6 6 6 5 6 4 4 2 0 2 2 0 2 3 4 5 6 5 5 5 5 6 6 5 5 5 5 5 5 9 8 8 7 10 11 9
8 8 7 7 6 6 5 4 4 3 3 3 3 3 4 4 4 3 2 2 1 1 1 0 1 2 3 3 3 2 2 3 5 4 4 4 4 5 5 5 5 6 6 6 5 4 5 6 5 6 6 6 5 6 4 3 3 3 4 3 3 4 4 4 5 5 4 6 7 6 5 5 5 7 5 5 4 4 6 10 9 9 7 11 12
7 8 7 7 6 6 4 4 4 4 3 3 3 4 4 4 3 3 2 1 1 1 1 1 3 3 3 4 3 3 3 4 4 4 4 4 4 5 5 4 4 4 5 4 6 5 5 5 5 4 6 6 6 6 6 3 4 5 4 4 5 5 5 5 5 5 6 6 7 7 7 6 5 6 6 5 5 5 4 8 11 8 7 6 7
6 6 6 5 5 5 4 4 5 5 4 4 4 5 5 4 4 2 1 0 1 1 2 3 4 3 4 4 4 4 4 4 4 4 4 4 4 4 4 4 4 5 5 5 5 6 6 5 5 5 5 6 6 6 6 5 5 5 6 6 6 6 6 6 6 6 7 8 8 8 5 7 5 5 5 5 5 5 6 5 5 5 5 9 8
5 7 7 6 6 5 5 4 5 5 4 4 4 4 4 3 2 1 2 2 3 3 3 4 3 3 3 4 4 4 4 4 4 4 4 4 4 4 4 4 4 5 6 6 6 6 7 7 6 5 5 5 6 6 5 5 6 7 7 5 5 5 7 6 8 8 7 7 7 5 6 6 6 5 5 6 5 5 5 6 5 5 5 8 10
4 7 7 6 6 6 6 6 5 5 5 5 4 4 3 2 1 0 3 3 2 2 3 3 2 3 3 4 4 4 4 4 4 3 4 4 4 4 4 5 5 6 6 6 6 7 7 7 6 6 7 7 6 6 6 5 5 4 5 7 6 5 7 7 9 8 8 6 5 6 6 7 6 8 8 5 6 6 5 6 6 5 5 5 7
5 6 7 6 6 6 6 6 5 5 5 5 4 3 2 4 3 3 3 3 3 2 2 1 2 2 3 4 4 3 3 3 2 2 2 3 3 4 5 6 6 6 7 7 7 6 7 7 6 7 6 7 5 5 5 4 4 5 4 4 6 4 6 7 8 8 8 7 8 8 8 8 8 9 8 6 7 6 6 6 6 5 5 5 5
6 5 4 5 4 4 5 5 5 5 4 4 5 3 2 2 4 3 4 1 0 1 1 3 1 1 2 3 3 2 2 2 2 3 4 4 4 5 5 5 6 6 7 7 7 7 6 7 7 6 7 5 7 6 7 8 6 5 6 4 3 3 4 5 7 9 9 9 7 8 8 9 10 9 7 7 7 8 7 6 6 6 6 6 5
5 5 4 5 3 3 3 4 5 4 5 5 5 4 3 1 1 2 1 3 1 1 2 2 2 2 2 1 2 2 2 3 3 3 3 4 4 4 5 4 5 6 7 7 7 7 7 6 7 8 7 7 5 6 7 9 7 3 3 5 3 3 4 7 8 8 9 10 10 11 9 10 10 9 6 8 9 8 7 5 7 7 7 6 6
4 4 4 4 3 3 3 3 4 5 3 3 3 3 4 4 3 3 4 2 1 3 2 2 2 2 2 3 2 0 0 1 1 2 2 3 4 4 4 5 5 5 5 6 7 7 7 7 7 7 7 7 7 6 6 8 10 9 6 1 1 3 5 1 6 7 6 8 11 11 10 10 9 9 9 9 8 7 8 9 6 7 7 7 7
4 2 3 3 3 2 3 4 4 4 5 3 4 4 4 4 3 3 2 2 2 3 5 3 5 4 4 2 4 4 3 4 4 4 2 2 3 3 3 4 5 5 5 5 5 6 7 8 7 6 7 8 7 8 8 7 10 11 11 9 7 6 1 1 3 5 2 8 7 9 10 10 9 9 9 9 10 8 8 8 8 7 7 7 6
3 2 3 3 4 4 5 5 4 5 4 3 3 6 5 5 5 5 4 4 2 1 1 0 3 4 3 5 4 5 5 5 5 4 4 4 4 5 5 5 5 5 5 6 5 6 7 7 6 7 8 8 8 9 8 7 7 8 9 11 10 9 6 4 6 1 5 3 7 8 9 9 8 9 9 10 9 8 8 8 10 8 7 6 6
2 3 4 4 5 6 6 6 5 5 3 3 5 4 6 5 6 5 5 4 3 2 3 3 2 2 5 6 5 6 5 5 6 7 7 7 7 6 6 5 6 6 6 6 6 6 7 7 7 8 8 8 7 8 10 8 7 5 7 9 8 9 9 9 8 6 5 3 4 5 5 7 8 9 9 10 10 9 9 8 9 9 6 7 6
3 4 4 4 5 6 7 6 6 6 4 5 6 6 6 6 5 4 5 3 3 3 1 2 4 5 6 6 7 7 8 8 8 8 8 8 9 8 8 8 8 8 7 7 7 7 9 9 9 7 8 8 7 8 8 8 8 9 8 7 9 7 7 8 8 7 8 8 7 6 6 6 8 8 9 10 9 9 9 9 9 9 7 7 7
3 3 3 4 5 6 8 8 6 5 5 7 8 8 8 6 6 6 6 5 5 5 5 6 5 4 6 6 7 8 8 8 8 8 8 9 8 8 8 9 9 8 7 7 8 8 8 8 8 8 9 9 7 8 9 8 8 8 8 8 7 7 5 5 8 9 7 8 9 7 8 8 9 9 9 9 12 11 10 9 9 9 8 7 6
4 4 3 4 5 7 8 9 5 5 6 7 9 8 7 6 6 6 7 7 6 6 7 7 6 7 7 7 7 7 8 8 8 8 6 8 7 8 8 8 7 7 7 7 7 7 7 8 8 9 9 10 8 9 8 9 8 8 8 7 9 7 8 10 10 10 9 7 7 8 5 8 11 9 9 11 9 11 10 10 11 10 9 9 8
Wind_Direction
163 153 146 146 151 139 125 122 120 119 118 120 121 119 123 123 125 122 122 120 118 117 118 120 120 120 121 121 118 116 113 111 108 109 107 105 104 103 104 105 105 103 102 102 99 97 93 90 87 83 81 82 85 88 84 83 81 80 77 76 72 71 71 72 74 74 74 78 80 87 83 86 79 79 79 78 76 74 74 70 64 68 71 69 73
150 149 144 147 150 138 126 122 121 120 120 122 122 120 123 124 124 124 122 120 119 119 120 121 121 121 121 120 118 115 113 111 109 108 106 106 105 104 103 101 101 99 98 97 97 95 94 91 88 86 84 85 84 84 85 85 84 83 78 74 74 75 75 76 76 77 78 76 83 82 81 76 82 83 81 79 78 75 74 75 72 63 61 73 72
132 145 141 148 148 135 125 123 122 121 120 123 123 120 121 124 124 123 122 120 120 121 121 121 121 122 121 118 116 113 111 109 108 108 107 105 104 100 98 99 100 99 98 96 96 95 97 93 90 88 87 88 85 85 86 88 91 84 70 68 70 71 75 77 80 78 74 70 68 70 74 83 83 86 84 82 80 78 74 73 73 75 72 68 67
142 141 143 147 145 132 125 123 123 122 122 125 124 122 123 124 125 124 122 122 122 121 121 120 119 119 119 116 114 113 111 110 109 106 105 105 105 104 104 100 97 98 99 99 97 97 100 98 94 92 93 91 87 84 88 90 86 78 71 65 56 59 72 81 80 78 73 71 64 55 45 54 77 85 85 83 80 78 75 73 71 70 68 67 67
141 139 142 138 140 130 126 124 124 124 123 123 127 127 124 125 125 125 122 121 121 121 121 120 119 118 117 116 115 113 111 109 106 105 104 103 99 97 95 96 98 99 100 99 91 89 94 95 96 98 97 90 92 94 89 77 69 63 56 51 49 54 68 76 77 74 71 68 62 52 35 49 62 86 89 85 82 78 74 71 67 64 63 61 62
140 139 139 134 134 134 129 127 126 126 125 126 127 126 123 124 125 124 122 121 120 120 120 119 117 117 115 114 112 111 110 107 105 104 100 96 95 96 97 96 96 97 97 97 92 87 93 96 100 102 100 94 87 81 75 70 61 52 44 39 42 58 84 87 82 78 73 68 60 49 41 48 52 81 89 87 82 77 75 74 74 72 69 68 68
140 138 134 131 132 135 132 129 127 127 126 126 125 125 124 125 124 123 124 122 119 119 117 115 115 114 114 114 113 112 109 107 104 101 99 98 99 98 98 97 96 95 95 94 93 85 84 98 107 109 104 96 89 83 76 70 60 48 37 29 32 74 109 103 91 86 80 68 58 52 50 59 67 34 91 90 88 86 81 79 76 74 72 71 68
131 138 136 130 135 140 134 129 129 129 126 124 123 124 124 124 124 125 124 119 118 116 117 116 116 115 114 113 114 112 109 108 102 100 99 99 99 99 99 100 96 93 91 92 93 89 88 95 108 113 109 100 87 78 74 67 57 44 33 32 30 112 123 111 100 94 84 71 67 69 50 53 70 78 85 86 88 88 91 89 86 82 79 76 73
131 134 132 133 145 139 134 130 130 128 125 122 120 124 125 125 125 126 124 120 118 116 116 117 116 115 113 114 114 111 110 104 102 97 91 88 89 89 91 91 92 93 94 92 89 87 86 94 111 113 109 102 84 75 70 63 53 44 43 46 81 120 120 111 106 95 83 70 74 71 54 21 45 74 90 90 89 88 82 79 84 90 91 86 81
127 121 132 137 138 141 136 132 128 126 123 121 123 125 127 127 126 125 125 122 117 113 113 115 115 116 116 116 115 110 106 103 97 90 90 90 90 91 93 94 96 98 98 99 97 92 96 99 115 114 107 96 84 77 69 61 54 52 64 79 100 108 110 106 101 89 83 80 72 72 79 68 44 82 94 92 91 91 92 97 96 92 88 93 92
120 120 124 131 137 139 134 129 125 122 121 123 124 125 127 130 129 128 129 126 122 116 111 117 117 118 118 117 114 108 103 100 95 96 94 93 94 95 95 98 102 108 105 96 94 91 87 94 105 108 107 97 89 82 74 64 56 65 79 91 102 103 103 100 91 72 69 76 75 64 86 75 62 88 95 93 92 90 89 89 87 86 89 87 84
118 115 122 130 140 132 130 126 123 122 123 125 127 128 128 132 134 132 130 130 126 121 115 107 117 122 121 116 110 109 105 101 101 99 94 91 92 93 94 88 87 81 78 83 89 95 95 98 109 112 102 98 94 87 80 69 66 76 92 95 97 103 101 98 87 82 75 74 79 76 64 70 81 89 95 98 94 90 90 89 90 88 87 88 85
118 122 126 129 125 134 129 126 125 124 125 128 130 131 133 138 139 137 134 131 125 122 120 116 117 118 119 118 116 110 101 99 97 92 92 94 95 93 90 85 85 87 89 92 94 93 96 98 95 97 99 96 93 88 82 72 71 82 99 108 109 108 106 100 89 88 86 80 78 75 63 47 81 99 98 100 99 97 97 92 88 86 85 87 88
122 125 124 122 132 135 127 126 128 127 129 133 133 135 139 142 143 141 134 128 124 115 115 118 112 114 116 117 111 102 103 105 97 96 98 98 98 101 98 93 93 93 92 89 88 91 94 98 97 94 96 96 93 89 80 73 74 85 103 112 116 115 112 104 99 95 97 92 83 80 75 83 93 109 108 103 102 97 90 88 89 93 93 89 87
131 127 128 132 135 135 135 133 131 130 131 131 136 141 143 143 141 133 130 131 123 112 122 115 118 122 119 117 111 107 106 103 101 95 91 93 93 92 93 90 80 77 74 74 77 81 87 91 93 92 90 88 88 87 82 78 76 87 104 120 121 119 113 103 103 103 97 97 89 83 71 74 107 104 102 102 101 98 94 92 89 89 95 94 91
127 129 130 130 134 136 138 135 134 131 132 137 141 144 144 141 138 133 130 131 125 120 120 121 121 118 117 117 115 108 104 98 97 100 100 96 95 93 88 84 80 78 74 71 72 77 84 90 93 94 91 89 87 87 88 81 77 86 108 122 124 124 119 114 107 105 107 105 104 104 101 96 110 123 112 105 104 106 105 99 95 103 105 104 101
129 129 129 136 132 130 129 130 135 136 137 141 144 144 137 131 130 129 131 125 123 129 122 116 118 116 119 118 115 112 105 100 97 100 99 94 91 92 92 87 80 76 71 70 67 66 70 74 81 83 79 83 87 88 83 78 77 82 124 134 135 129 127 120 117 124 127 121 114 98 100 116 108 101 112 114 116 115 109 103 94 100 99 104 104
131 133 136 134 131 126 124 129 131 129 138 143 146 142 136 130 126 131 127 116 121 122 117 110 118 118 119 117 116 115 106 103 101 97 98 101 101 96 91 85 80 75 74 66 63 59 58 62 60 60 60 65 70 71 70 68 74 93 138 142 139 137 134 123 121 134 125 116 115 119 120 147 142 135 120 121 118 116 107 100 102 91 89 88 96
132 137 130 128 126 122 122 118 120 123 125 130 130 142 135 135 130 127 121 119 113 110 116 121 124 126 124 120 125 120 120 112 106 102 102 108 108 105 103 95 81 68 63 65 58 52 55 53 49 42 43 48 54 61 66 62 62 92 145 143 142 141 134 124 125 131 118 117 123 117 276 150 110 131 124 122 120 110 107 106 107 114 113 102 96
138 134 128 121 123 122 122 120 120 123 120 102 104 124 142 138 132 126 126 126 116 109 114 124 128 128 125 110 87 95 103 110 112 110 115 113 112 116 114 110 98 79 58 54 43 45 45 48 45 36 36 40 51 58 65 70 67 99 138 138 144 139 123 124 127 123 135 135 133 134 181 139 131 132 129 126 118 111 109 116 119 116 111 106 108
137 136 134 129 130 127 126 120 120 115 108 97 91 108 138 136 135 137 136 133 121 114 116 116 107 114 101 88 84 73 63 58 64 59 97 113 137 125 121 117 112 103 72 24 37 29 33 37 36 32 30 38 53 51 52 73 82 98 140 142 137 117 136 127 131 134 136 141 140 207 156 148 147 147 140 137 136 129 129 138 150 137 131 121 105
149 144 139 132 136 134 131 125 117 114 104 95 99 102 112 106 101 117 133 137 130 126 111 104 95 75 87 83 76 88 72 64 37 61 60 64 41 124 112 120 118 99 62 30 7 11 10 21 24 27 31 33 55 53 32 39 86 120 148 143 119 140 133 137 138 146 148 155 162 186 162 165 164 161 163 171 146 145 158 159 158 160 145 141 117
146 142 139 140 136 130 130 133 121 112 102 100 100 90 95 92 89 112 127 137 132 113 104 101 93 99 98 92 90 75 87 75 61 254 191 190 45 331 290 10 126 85 27 353 351 349 358 358 3 17 30 31 63 67 58 34 48 82 153 128 136 133 136 145 152 159 168 180 165 189 176 182 184 180 184 169 178 156 169 158 161 163 158 142 120
148 144 134 123 124 131 131 126 123 108 105 103 99 103 100 104 114 103 100 96 99 110 112 116 104 106 113 103 77 96 74 60 309 315 4 45 31 358 326 322 340 358 355 26 9 3 355 355 356 360 11 9 52 76 85 43 62 94 121 143 150 152 154 163 166 173 179 193 190 207 186 199 210 208 186 205 157 174 179 181 174 173 169 176 147
120 120 123 130 123 127 128 128 115 105 106 115 117 103 111 115 115 113 106 92 102 98 102 101 106 102 104 101 65 80 15 27 350 330 349 14 17 354 329 346 4 1 3 349 6 2 354 346 345 358 350 350 360 94 111 102 16 98 145 162 165 164 165 167 174 177 199 216 212 221 194 211 209 196 194 179 165 179 178 177 173 167 156 117 140
109 130 136 132 133 126 126 125 117 113 121 113 120 129 132 127 115 133 111 105 111 113 104 104 100 100 94 94 102 46 24 352 52 23 330 333 275 244 266 293 341 280 290 303 312 335 316 320 331 330 326 319 315 338 160 156 168 158 153 172 180 178 174 174 178 186 197 216 230 232 214 213 196 199 190 177 182 184 184 175 171 165 140 150 176
151 150 133 133 130 131 131 127 131 123 123 124 116 122 142 126 117 127 125 131 134 129 139 101 106 112 115 148 129 138 346 348 353 345 9 188 245 243 243 234 245 258 255 250 291 283 269 285 286 273 282 296 299 284 172 181 183 186 179 182 185 187 182 182 186 189 195 205 228 241 228 213 193 202 198 189 192 189 184 180 166 165 167 179 206
155 144 136 141 143 142 140 142 133 133 130 136 128 152 140 141 151 165 150 169 152 153 145 130 135 159 177 184 151 164 203 340 324 330 308 337 277 277 230 232 239 252 260 246 283 289 292 280 267 256 256 261 276 286 224 170 182 193 198 197 193 190 194 193 193 194 193 200 211 240 232 207 203 205 207 195 192 190 190 175 172 180 178 198 202
160 162 163 148 145 141 139 140 138 135 123 137 151 161 131 134 179 150 154 191 132 142 133 124 138 176 191 187 164 179 185 201 242 238 218 274 297 294 291 271 243 255 205 257 244 277 289 284 281 286 271 268 264 280 286 241 167 187 194 205 203 197 197 200 203 198 197 195 209 225 223 208 213 226 213 194 199 185 204 187 186 183 178 190 197
165 164 168 162 134 132 134 134 132 130 134 148 157 163 143 153 174 171 164 176 123 118 132 135 139 159 175 177 182 176 201 218 245 272 206 283 280 285 276 276 293 289 216 267 246 253 276 291 291 291 294 288 290 283 300 305 300 176 180 199 201 202 197 198 201 200 194 195 208 221 225 211 222 228 206 200 207 190 196 201 179 180 191 192 191
158 162 158 140 139 135 130 133 135 146 145 155 159 157 164 175 169 152 147 125 131 127 125 152 160 178 188 181 184 220 212 228 261 304 322 305 294 274 265 279 283 273 215 276 329 312 302 285 311 318 316 312 299 310 301 292 294 301 235 199 215 202 205 204 202 195 194 200 194 205 223 216 218 226 226 215 228 199 204 197 183 187 194 175 198
163 164 148 134 141 136 132 129 138 145 151 149 154 163 174 168 147 127 151 148 143 152 165 165 202 193 192 177 198 242 260 270 249 317 296 292 291 278 258 256 254 275 285 258 274 281 271 275 282 308 298 301 294 293 282 267 278 276 284 260 226 207 205 190 193 195 200 201 197 200 209 215 218 225 230 238 220 216 208 202 194 189 190 204 177
145 138 131 142 148 137 133 137 141 149 152 159 170 170 152 137 119 123 151 149 153 155 168 177 174 173 152 140 193 218 231 242 253 244 271 269 286 292 285 266 257 235 229 273 272 266 274 277 272 239 258 280 292 287 272 256 267 274 273 263 232 223 201 177 186 185 199 215 211 196 200 208 208 225 230 235 222 215 220 207 202 197 192 212 198
148 129 131 154 136 134 141 144 149 151 162 166 157 146 131 118 116 131 141 139 158 156 173 159 167 117 156 210 225 235 244 244 256 278 268 288 292 293 299 300 306 316 255 239 246 241 260 279 271 281 274 267 268 274 285 269 251 265 296 322 191 196 165 179 161 167 172 190 194 234 243 220 207 211 221 231 226 212 233 261 213 192 196 201 199
143 140 157 160 158 153 155 148 152 152 160 158 145 133 125 128 129 133 144 162 164 167 151 120 99 303 249 257 235 239 256 286 307 291 288 267 292 296 295 296 308 315 306 287 264 252 225 246 274 273 275 266 261 270 260 245 223 280 302 318 201 180 176 166 158 178 194 189 186 188 186 235 233 213 217 223 226 211 224 245 204 192 190 187 192
157 158 156 153 162 153 154 139 142 151 143 140 122 125 130 123 124 142 134 160 168 189 184 172 178 204 226 246 244 245 262 263 251 242 261 269 285 292 296 308 316 319 313 302 281 271 256 242 246 242 263 264 258 261 235 220 144 320 261 270 45 208 209 178 188 196 188 197 214 213 199 192 210 219 217 215 221 214 213 229 210 204 197 186 192
162 166 161 153 154 161 162 142 146 141 120 110 112 106 107 108 116 126 146 159 182 246 274 84 236 235 231 240 251 261 247 237 236 236 246 271 276 282 289 298 305 304 302 301 294 274 262 256 244 235 233 262 266 265 243 175 125 233 230 209 201 200 208 206 199 204 184 208 219 210 210 205 209 219 219 210 215 208 215 219 216 207 202 185 194
167 168 161 162 159 160 138 136 114 119 115 118 120 111 102 102 98 101 134 150 210 279 50 229 251 249 244 254 252 241 230 219 219 213 230 250 259 262 278 280 279 280 276 279 289 287 261 252 256 233 230 237 253 254 259 230 193 225 244 228 236 225 215 206 198 201 192 211 225 219 209 196 203 214 209 203 205 201 198 215 215 208 199 186 194
156 152 144 142 134 134 127 148 123 118 117 122 116 107 102 89 74 87 88 192 296 204 209 231 246 251 251 254 251 238 234 222 217 211 230 242 251 256 263 265 258 256 256 254 275 280 269 243 248 249 229 226 232 238 249 253 248 249 249 242 228 227 227 219 207 205 203 209 215 224 210 213 199 206 215 206 200 200 198 196 211 203 199 181 169
127 144 139 141 136 133 132 128 133 132 131 119 114 107 97 98 120 13 1 289 262 245 226 234 229 238 249 247 237 231 226 225 218 216 223 236 243 252 257 262 260 260 261 256 257 256 261 260 246 246 250 243 236 241 237 243 263 274 274 263 238 234 237 228 222 218 218 212 213 215 216 218 220 219 223 209 196 202 199 191 199 193 199 184 174
114 127 127 133 136 142 143 144 141 145 140 137 129 134 123 101 73 203 237 240 236 230 254 265 246 241 243 241 240 236 225 226 221 212 218 235 238 243 244 246 244 249 247 247 247 251 250 248 247 235 242 247 239 223 236 222 225 237 236 261 261 240 241 235 228 224 219 218 205 210 212 213 199 214 222 214 202 201 201 194 192 188 194 193 182
123 124 132 137 134 143 155 147 144 157 163 160 145 132 149 169 165 196 190 218 212 226 299 330 240 257 244 245 249 251 240 234 246 210 238 227 248 254 254 257 250 247 248 251 251 247 245 242 243 253 225 244 247 199 216 191 236 228 225 240 243 243 242 237 234 232 226 216 211 211 210 215 216 215 214 204 208 198 200 197 188 185 193 191 177
107 110 123 129 142 152 149 153 161 158 160 152 147 158 176 177 158 195 166 242 246 178 195 251 307 288 276 259 267 280 267 266 253 241 235 237 238 245 245 246 254 258 263 260 256 253 243 241 233 243 260 223 234 200 189 180 232 215 234 251 239 230 231 237 238 237 228 222 212 214 217 220 223 218 209 207 207 210 207 194 190 186 189 190 179
106 94 94 109 123 130 149 161 162 160 163 179 174 171 163 149 53 52 41 68 339 342 16 353 15 8 347 322 299 273 240 236 229 230 234 236 232 240 248 248 253 252 258 267 266 262 247 245 241 238 233 252 233 226 194 195 205 147 261 214 230 189 254 230 226 231 221 227 219 218 212 220 221 217 201 209 203 209 208 196 193 188 189 189 179
103 110 114 107 120 130 140 161 167 163 160 148 123 114 96 73 47 38 37 29 359 8 29 7 23 357 43 15 23 141 254 274 233 220 238 255 244 237 238 248 250 251 253 266 278 278 281 267 253 243 234 243 248 242 221 206 209 199 212 215 280 241 235 171 197 250 202 224 224 217 216 218 216 212 208 214 208 202 199 204 197 191 189 189 181
100 106 121 122 114 86 65 72 83 84 101 110 132 119 112 118 102 99 62 28 360 9 23 353 340 5 358 311 356 28 21 11 9 0 333 310 306 297 289 290 284 277 264 265 272 280 282 284 274 268 260 244 246 253 261 224 217 211 219 219 207 236 227 255 130 269 177 227 229 218 219 217 213 213 212 212 209 203 196 203 198 195 189 190 185
110 123 90 82 69 57 64 83 86 90 100 109 119 116 102 105 110 110 113 105 91 304 267 318 15 348 343 19 3 6 28 24 11 9 3 356 351 343 332 314 295 286 277 271 261 271 278 276 271 264 268 263 252 245 246 249 237 231 226 225 225 224 194 184 224 282 273 220 224 218 222 217 212 214 215 215 212 207 203 201 200 197 193 187 185
73 71 65 67 72 72 79 82 78 80 76 109 85 90 110 111 98 93 94 96 105 82 13 8 22 3 23 16 6 12 11 20 11 9 8 4 358 353 339 318 315 308 303 292 286 279 273 271 268 269 272 272 267 258 257 255 238 250 211 227 231 232 223 225 227 216 244 259 232 224 231 218 214 213 212 214 210 208 205 203 201 201 193 192 183
52 63 82 84 81 87 88 83 77 79 71 76 81 70 77 78 84 95 84 65 74 52 9 46 36 18 30 9 12 2 8 8 14 9 5 0 356 346 340 339 337 333 326 316 301 285 274 273 273 270 273 273 260 263 267 269 266 256 248 213 223 230 225 207 216 219 236 241 240 203 216 211 215 214 212 212 209 206 207 206 201 198 195 189 187
53 73 82 90 92 98 93 85 77 81 86 74 75 67 64 67 68 64 67 43 30 25 36 27 17 15 30 15 11 10 4 4 4 4 358 357 345 344 342 343 346 337 330 314 301 293 287 281 275 269 265 261 257 259 261 269 272 276 270 271 239 220 226 207 209 215 226 226 245 225 208 198 212 219 207 208 209 204 201 202 201 196 197 197 188
82 70 81 102 108 100 98 86 81 77 70 73 74 69 64 58 67 62 61 49 34 35 25 16 9 21 21 14 16 7 9 360 355 351 357 346 344 346 347 345 330 315 296 293 289 285 286 283 277 272 270 267 260 260 258 261 267 273 273 276 276 255 225 216 210 204 205 208 220 239 221 202 213 220 208 209 207 208 202 196 198 199 195 194 192